Tracking 19817 objects as of 18-Aug-2019
HD Live streaming from Space Station
objects crossing your sky now

COSMOS 2251 DEB

Track COSMOS 2251 DEB now!
10-day predictions


NORAD ID: 37086
Int'l Code: 1993-036BFG
Perigee: 656.9 km
Apogee: 735.7 km
Inclination: 74.0 °
Period: 98.5 minutes
Semi major axis: 7067 km
RCS: 0.0013 m2 (small)
Launch date: June 16, 1993
Source: Commonwealth of Independent States (former USSR) (CIS)
Launch site: PLESETSK MISSILE AND SPACE COMPLEX (PKMTR)

Note: This is SATELLITE DEBRIS
aabbcc
Your satellite tracking list
Your tracking list is empty




NASA's NSSDC Master Catalog

Two Line Element Set (TLE):
1 37086U 93036BFG 19228.65604234 +.00000568 +00000-0 +11918-3 0  9999
2 37086 074.0046 345.3470 0055783 326.8082 032.9588 14.61238191349995
Source of the keplerian elements: AFSPC